Regional Weather Roundup
Issued by NWS

Home | Current Version | Previous Version | Graphics & Text | Print | Product List | Glossary On
Versions: 1 2 3 4 5 6 7 8 9 10 11 12 13 14 15 16 17 18 19 20 21 22 23 24 25 26 27 28 29 30 31 32 33 34 35 36 37 38 39 40 41 42 43 44 45 46 47 48 49 50
000
ASUS43 KIND 130809
RWRIN

WEATHER ROUNDUP FOR INDIANA
NATIONAL WEATHER SERVICE INDIANAPOLIS IN
300 AM EST WED DEC 13 2017

NOTE: "FAIR" INDICATES FEW OR NO CLOUDS BELOW 12,000 FEET WITH NO
SIGNIFICANT WEATHER AND/OR OBSTRUCTIONS TO VISIBILITY.

* - STATION DOES NOT REPORT WEATHER SUCH AS PRECIPITATION OR FOG.

+ - STATION NOT QUALITY CONTROLLED BY THE NATIONAL WEATHER SERVICE.
    USE DATA WITH CAUTION...ESPECIALLY DEWPOINT AND RELATIVE
    HUMIDITY OBSERVATIONS.

INZ001>003-010>013-019-020-130900-
NORTHWEST INDIANA

CITY           SKY/WX    TMP DP  RH WIND       PRES   REMARKS
GARY /AIRPORT/ CLOUDY    23   8  52 S5        29.88F WCI  17
KNOX *+        CLOUDY    18  10  73 S7        29.89F WCI   8
LA PORTE +     CLOUDY    18  10  73 SW6       29.88F WCI   9
MICHIGAN CITY+ CLOUDY    21  10  63 SW7       29.89S WCI  13
MONTICELLO +   CLOUDY    18   8  65 S7        29.91F WCI   9
RENSSELAER +   CLOUDY    21   9  58 S5        29.91R WCI  15
VALPARAISO     CLOUDY    20  11  68 S6        29.88F WCI  12

$$

LMZ046-743>745-130900-
SOUTHERN LAKE MICHIGAN

STATION/POSITION TIME  TEMP    WIND        PRES    WAVE
                       AIR SEA DIR/SP/G            HT
                 (UTC) (F)     (DEG/KT/KT) (MB)    (FT)
BURNS HARBOR     0740   21     190/  6/ 10 1012.2F

$$

INZ004-005-014>016-021>024-130900-
NORTH CENTRAL INDIANA

CITY           SKY/WX    TMP DP  RH WIND       PRES   REMARKS
GOSHEN         PTCLDY    16   8  71 SW8       29.87F WCI   5
LOGANSPORT +   MOCLDY    18  10  73 SW7       29.92F WCI   8
PERU/GRISSOM   PTCLDY    15   9  77 SW6       29.90F WCI   6
ROCHESTER +    CLOUDY    19  12  73 SW5       29.90S WCI  13
SOUTH BEND     CLOUDY    16  10  77 SW9       29.87F WCI   4
WARSAW +       CLOUDY    18   9  68 SW6       29.89S WCI   9

$$

INZ006>009-017-018-025>027-130900-
NORTHEAST INDIANA

CITY           SKY/WX    TMP DP  RH WIND       PRES   REMARKS
AUBURN +       PTCLDY    16   9  73 CALM      29.89F
FORT WAYNE     CLOUDY    13   8  81 SW7       29.90F WCI   3
HUNTINGTON +   CLOUDY    17   8  65 SW5       29.89F WCI  10
KENDALLVILLE + CLOUDY    13   8  79 SW5       29.86F WCI   6

$$

INZ028-029-035-036-043>045-051>053-130900-
WEST CENTRAL INDIANA

CITY           SKY/WX    TMP DP  RH WIND       PRES   REMARKS
CRAWFORDSVL +  MOCLDY    18   9  67 S6          N/A  WCI  10
GREENCASTLE +  PTCLDY    19   9  63 S3        29.94F
LAFAYETTE      CLOUDY    19  10  68 VRB3      29.93F
TERRE HAUTE    CLOUDY    23   9  55 SW6       29.96F WCI  16

$$

INZ030>032-037>040-046>048-054>057-064-065-130900-
CENTRAL INDIANA

CITY           SKY/WX    TMP DP  RH WIND       PRES   REMARKS
FRANKFORT +    CLOUDY    19  12  72 CALM      29.93F
INDIANAPOLIS   MOCLDY    17   8  67 S6        29.94F WCI   9
-EAGLE CREEK   MOCLDY    18   7  62 CALM      29.93F
KOKOMO +       PTCLDY    16   9  74 SW7       29.92F WCI   6
MARION +       LGT SNOW  17  10  71 SW7       29.91F WCI   8
MT COMFORT *+  MOCLDY    16  10  79 CALM      29.93F
SHELBYVILLE    CLOUDY    18   8  65 S6        29.96S WCI  10
ZIONSVILLE +   PTCLDY    15   8  73 S3        29.92F

$$

INZ033-034-041-042-049-050-058-059-130900-
EAST CENTRAL INDIANA

CITY           SKY/WX    TMP DP  RH WIND       PRES   REMARKS
MUNCIE         PTCLDY    17   8  67 SW5       29.92F WCI  10
RICHMOND +     CLOUDY    14  10  85 SW5       29.93S WCI   6

$$

INZ060-061-067>069-081>083-085>088-130900-
SOUTHWEST INDIANA

CITY           SKY/WX    TMP DP  RH WIND       PRES   REMARKS
EVANSVILLE     CLOUDY    22  13  68 CALM      30.04F
HUNTINGBURG +  CLOUDY    20  12  71 S3        30.03F
WASHINGTON +   PTCLDY    21  12  68 SE5       30.00F WCI  14

$$

INZ062-063-066-070>080-084-089>092-130900-
SOUTH CENTRAL AND SOUTHEAST INDIANA

CITY           SKY/WX    TMP DP  RH WIND       PRES   REMARKS
BEDFORD +      PTCLDY    19   9  63 S5        29.98F WCI  13
BLOOMINGTON    CLOUDY    20   8  60 SW5       29.95F WCI  13
MADISON *+     CLEAR     21  10  63 CALM      30.01F
NORTH VERNON + PTCLDY    16   9  73 CALM      29.99F
SEYMOUR +      CLEAR     18   9  68 S5        30.00F WCI  11

$$





USA.gov is the U.S. government's official web portal to all federal, state and local government web resources and services.